ONEWEB-0540

operational
NORAD ID: 54645 Int'l Des: 2022-166 Owner: ONEWEBN Country: UK Constellation: oneweb
LEOCIRCULARPOLARONEWEB_TYPE

About ONEWEB-0540

Description loading...

Live Position

Loading 3D Globe...

Upcoming Passes

Altitude History

Altitude vs Time

uPlot chart will show altitude changes over time

Two-Line Element Set

1 54645U 22166D 25251.85687037 .00000133 00000-0 29139-3 0 9994
2 54645 87.9218 300.1507 0002052 89.6137 270.5232 13.21823919134367
Epoch: Sep 8, 2025 • Age: 14 hours

Current Status

Altitude 1186.6 km
Velocity 7.26 km/s
Sub-Earth Point -21.91°S, 22.34°W
Launch Date Dec 8, 2022
Age 2.7 years
Type internet

Technical Details

Classification Payload
Mass 148.00 kg
Dry Mass 140.00 kg
Total Mass 148.00 kg
Length 1.30 m
Diameter 1.00 m
Span 5.00 m
Shape Trapezoid+2 pan
Manufacturer ONEWUS
Bus Type ARROW
Phase Status In Orbit
Owner/State ONEWEBN/UK

Large Constellations

Loading constellations...